Location: Waco, TX
(31.5480°N, 97.1670°W)
Time: 22:18:10
(UTC-05:00)

ISS - Pass Details

Date: 22 September 2018
Orbit: 403 x 409 km, 51.6° (Epoch: 24 September)

Event Time Altitude Azimuth Distance (km) Brightness Sun altitude
Rises 02:52:54 0° 335° (NNW) 2,325 - -51.5°
Reaches altitude 10° 02:56:13 10° 11° (N) 1,460 - -51.1°
Maximum altitude 02:57:22 11° 32° (NNE) 1,375 - -50.9°
Drops below altitude 10° 02:58:31 10° 52° (NE) 1,457 - -50.7°
Sets 03:01:49 0° 88° (E) 2,312 - -50.3°
